COSMOS 2499 DEB, 49938

Orbit data source: Space-Track

COSMOS 2499 DEB, 49938 is space debris in LEO originally from a launch on Fri, 23 May 2014 UTC launched from the Plesetsk Missile And Space Complex (PKMTR). Debris objects in space refer to the collection of defunct objects orbiting the Earth. Examples of debris include non-operational satellites, rocket bodies, and fragments generated from explosions, collisions, or faulty payload assembly.

Loading next visibility...
Identifier
49938, 2014-028V
Orbit
LEO
Country
Flag of CISCIS
Related business
Manufacturer
TsNIIKhM
Mission
Spacecraft
Bus & Motor
Unknown
Mass
Unknown
Launch date (UTC)
2014-05-23 (12 years ago)
Launch vehicle
Unknown
Launch site
Plesetsk Missile And Space Complex (PKMTR)
Object type
Payload
Rocket body
Debris
Shape & HBR
Unknown shape, 0.1 m
Radar Cross Section
Small (<0.1 m²)

Expand to show TLE details & history
Last TLE update: 5 days ago

TLE from 5 days ago
0 COSMOS 2499 DEB
1 49938U 14028V   26168.47480560  .00004093  00000-0  10339-1 0  9998
2 49938  82.5599 235.5817 0288095 212.6060 145.6981 13.05091547219240
Epoch: 2026-06-17T11:23Z
TLE epoch observation values (Epoch: 2026-06-17T11:23:43.203Z)
Latitude
-0.00004°
Longitude
158.91972°
Altitude
1,428.324 km
Speed
7.061 km/s
True Right ascension
15h 42m 19s
True Declination
0° 00' 00"
Sunlit
Object was in full shadow at epoch
Visualization orbit readout
Latitude
Unknown
Longitude
Unknown
Altitude
Unknown
Speed
Unknown
Apparent Right ascension
Unknown
Apparent Declination
Unknown
Sunlit
N/A
Visualization observer readout
Local Sidereal Time
21:43:24
Azimuth
Unknown
Elevation
Unknown
Doppler factor
Unknown
Orbital elements
Apogee altitude
1,458.923 km
Perigee altitude
1,020.004 km
Semi-major axis
7,617.601 km
Eccentricity
0.02881
Inclination
82.5599°
RAAN
235.5817°
Arg. of periapsis
212.606°
True anomaly
147.50447°
Mean anomaly
145.6981°
Eccentric anomaly
146.6066°
Mean motion
3.26449 °/min
Orbital period
110.28 mins
BSTAR
0.010339
Loading maneuver chart data...
Computing Atmospheric mass density...
Loading historical data...
Loading historical data...
Loading historical data...
Loading historical data...
Loading historical data...
Loading historical data...
Loading historical data...

Documentation

Showing up to 5 results
|